# Land Stadt Wetter Temperatur Luftdruck Luftfeuchtigkeit Sichtweite Windgeschwindigkeit Windrichtung Ortszeit
1 ar Esquel Snow -1 1003 89 10000 18 359 02.08.2018 14:22
2 bo La Paz Clouds 2 1038 69 10000 7 10 02.08.2018 14:22
3 ar Ushuaia Drizzle 2 975 93 8000 6 70 02.08.2018 14:22
4 bo Potisi Clouds 4 1017 48 10000 5 271 02.08.2018 14:22
5 cl Santiago Clear 7 1027 65 10000 2 17 02.08.2018 14:23
6 us Nome Clear 7 1005 71 10000 19 350 02.08.2018 14:23
7 ru Amderma Clouds 8 1010 68 10000 35 306 02.08.2018 14:23
8 pe Cusco Clouds 8 1020 82 10000 3 263 02.08.2018 14:23
9 ru Anadyr Clear 8 1016 76 10000 22 150 02.08.2018 14:23
10 is Reykjavik Clouds 9 1007 87 10000 0 0 02.08.2018 14:22
11 no Hammerfest Rain 9 1013 87 7000 52 240 02.08.2018 14:22
12 gl Nuuk Clouds 10 1012 76 10000 37 180 02.08.2018 14:22
13 za Kapstadt Rain 11 1020 88 10000 9 290 02.08.2018 14:22
14 nz Wellington Clouds 11 1022 77 10000 30 350 02.08.2018 14:23
15 au Sydney Clear 13 1009 59 10000 11 265 02.08.2018 14:22
16 uy Montevideo Clear 14 1015 78 10000 13 3 02.08.2018 14:22
17 ca Montreal Clear 14 1018 85 10000 7 240 02.08.2018 14:22
18 ar Buenos Aires Clear 15 1014 89 10000 11 30 02.08.2018 14:22
19 ru Surgut Clouds 15 1004 62 10000 36 300 02.08.2018 14:23
20 et Addis Abeba Rain 16 1025 88 9000 9 170 02.08.2018 14:23
21 us Fairbanks Clear 16 999 85 10000 6 80 02.08.2018 14:23
22 mx Mexiko Stadt Clouds 16 1019 76 10000 5 70 02.08.2018 14:21
23 fi Rovaniemi Clouds 17 1018 55 10000 11 230 02.08.2018 14:21
24 ke Nairobi Clouds 17 1023 72 10000 9 180 02.08.2018 14:22
25 br Rio de Janeiro Clear 17 1020 84 10000 7 310 02.08.2018 14:22
26 ru Werchojansk Clouds 17 1009 55 10000 3 60 02.08.2018 14:22
27 de Torfhaus Clouds 17 1012 79 10000 14 103 02.08.2018 14:22
28 gb Glasgow Clouds 18 1011 87 9000 11 90 02.08.2018 14:21
29 ie Dublin Clear 18 1009 88 10000 9 350 02.08.2018 14:21
30 au Perth Clouds 19 1017 54 10000 11 40 02.08.2018 14:21
31 bg Sofia Clouds 19 1013 82 10000 7 340 02.08.2018 14:21
32 mg Antananarivo Clouds 19 1024 56 10000 20 120 02.08.2018 14:21
33 fi Helsinki Clouds 19 1011 85 10000 13 140 02.08.2018 14:21
34 ad Andorra la Vella Clear 19 1013 55 10000 10 215 02.08.2018 14:22
35 pt Lissabon Clouds 19 1015 81 10000 7 340 02.08.2018 14:22
36 us New York Clear 19 1018 60 10000 6 290 02.08.2018 14:22
37 de Helgoland Clouds 20 1013 78 10000 23 99 02.08.2018 14:22
38 de Stuttgart Clear 20 1011 63 10000 2 0 02.08.2018 14:22
39 mn Uliastai Clouds 20 1008 34 10000 21 291 02.08.2018 14:23
40 mn Ulaanbaatar Clouds 20 1009 56 10000 11 360 02.08.2018 14:23
41 ch Andermatt Clouds 20 1012 51 10000 3 186 02.08.2018 14:23
42 at Innsbruck Clear 20 1013 56 10000 9 280 02.08.2018 14:23
43 fr Bordeaux Clouds 20 1011 94 7000 7 220 02.08.2018 14:21
44 no Oslo Clear 21 1016 1 10000 8 181 02.08.2018 14:23
45 ec San Cristobal Clouds 21 1014 88 10000 22 174 02.08.2018 14:22
46 us Chicago Clear 21 1012 78 10000 3 234 02.08.2018 14:23
47 us Los Angeles Clear 21 1014 69 10000 7 250 02.08.2018 14:22
48 de Dresden Clear 21 1013 75 10000 4 0 02.08.2018 14:22
49 ck Avarua Clouds 22 1016 73 10000 9 150 02.08.2018 14:22
50 ma Casablanca Clouds 22 1013 88 5000 7 20 02.08.2018 14:23
51 ch Bern Clear 22 1012 48 10000 9 310 02.08.2018 14:23
52 de Flensburg Clouds 22 1014 78 10000 17 110 02.08.2018 14:21
53 de Kassel Clear 22 1012 68 10000 11 130 02.08.2018 14:21
54 de Trier Clouds 22 1010 45 10000 8 57 02.08.2018 14:21
55 es Madrid Clear 22 1014 52 10000 9 210 02.08.2018 14:23
56 it Rom Clear 22 1011 65 10000 13 30 02.08.2018 14:23
57 at Wien Clouds 22 1011 73 10000 17 340 02.08.2018 14:22
58 ru Jakutsk Clouds 22 1002 68 10000 11 70 02.08.2018 14:22
59 de Oberstdorf Clouds 22 1011 40 10000 6 195 02.08.2018 14:21
60 us Denver Clouds 22 1016 58 10000 2 238 02.08.2018 14:21
61 es Las Palmas de Gran Canaria Clouds 23 1017 86 10000 19 9 02.08.2018 14:21
62 cn Lhasa Clouds 23 1001 33 10000 5 129 02.08.2018 14:22
63 fj Suva Clouds 23 1016 68 10000 19 110 02.08.2018 14:21
64 de Bremen Clear 23 1012 70 10000 11 110 02.08.2018 14:22
65 de Frankfurt Clear 23 1009 64 10000 17 60 02.08.2018 14:22
66 au Alice Springs Clear 23 1016 12 10000 11 210 02.08.2018 14:21
67 de München Clear 23 1011 48 10000 16 128 02.08.2018 14:21
68 gb Manchester Clouds 24 1009 51 10000 2 0 02.08.2018 14:21
69 ru Moskau Clear 24 1021 58 10000 7 117 02.08.2018 14:22
70 ua Kiew Clouds 24 1002 74 10000 2 303 02.08.2018 14:21
71 cn Peking Clouds 24 999 98 10000 2 210 02.08.2018 14:23
72 us Tucson Clear 24 1016 74 10000 17 140 02.08.2018 14:21
73 mx Veracruz Clouds 24 1010 82 10000 2 217 02.08.2018 14:21
74 de Hannover Clear 24 1012 69 10000 13 90 02.08.2018 14:21
75 se Stockholm Clouds 24 1017 57 10000 9 150 02.08.2018 14:23
76 cd Kisangani Clouds 24 1013 82 10000 4 34 02.08.2018 14:23
77 do Santo Domingo Clouds 24 1015 90 10000 7 357 02.08.2018 14:21
78 tr Ankara Clear 25 1001 54 10000 3 277 02.08.2018 14:23
79 de Freiburg Clouds 25 1006 44 10000 11 360 02.08.2018 14:22
80 de Hamburg Clear 25 1013 58 10000 13 90 02.08.2018 14:21
81 de Nürnberg Clear 25 1011 59 10000 13 110 02.08.2018 14:21
82 in Nagpur Rain 25 1005 100 2500 7 270 02.08.2018 14:21
83 us Honolulu Clouds 26 1017 71 10000 20 60 02.08.2018 14:22
84 us Miami Clouds 26 1015 79 10000 0 0 02.08.2018 14:23
85 de Köln Clear 26 1010 52 10000 11 120 02.08.2018 14:21
86 it Mailand Clear 26 1010 48 10000 6 0 02.08.2018 14:21
87 br Manaus Clouds 26 1013 78 10000 4 30 02.08.2018 14:21
88 tr Istanbul Clouds 26 1007 65 10000 9 110 02.08.2018 14:23
89 de Braunschweig Clear 26 1012 57 10000 13 110 02.08.2018 14:21
90 es Tarifa Clouds 26 1013 70 10000 18 255 02.08.2018 14:21
91 ma Marrakesch Clouds 26 1015 69 8000 9 270 02.08.2018 14:23
92 de Magdeburg Clouds 26 1007 60 10000 10 107 02.08.2018 14:22
93 sb Honiara Clouds 26 1010 84 10000 4 108 02.08.2018 14:22
94 gb London Clouds 26 1007 50 10000 9 110 02.08.2018 14:22
95 in Jagatsukh Clouds 26 1010 76 10000 12 202 02.08.2018 14:22
96 fr Paris Clear 26 1006 47 10000 20 250 02.08.2018 14:22
97 es Sevilla Clear 27 1011 48 10000 7 20 02.08.2018 14:22
98 de Emden Clouds 27 1011 64 10000 18 114 02.08.2018 14:21
99 de Berlin Clear 27 1011 65 10000 10 41 02.08.2018 14:21
100 eg Kairo Clouds 27 1008 69 10000 13 360 02.08.2018 14:22
101 in Mumbai Clouds 28 1006 83 1000 30 220 02.08.2018 14:22
102 de Hiddensee Clouds 28 1015 76 10000 24 86 02.08.2018 14:21
103 af Kabul Clouds 28 1004 44 10000 12 65 02.08.2018 14:21
104 tr Alanya Clear 28 1007 42 10000 27 303 02.08.2018 14:22
105 bs Nassau Clouds 28 1014 69 10000 11 130 02.08.2018 14:22
106 fr Nizza Clouds 28 1010 51 10000 7 106 02.08.2018 14:22
107 us Las Vegas Clouds 28 1014 59 10000 11 170 02.08.2018 14:21
108 it Palermo Clear 29 996 60 10000 2 332 02.08.2018 14:22
109 bg Warna Clouds 29 1005 74 10000 9 0 02.08.2018 14:21
110 pg Port Moresby Clouds 29 1008 74 10000 19 160 02.08.2018 14:21
111 gr Athen Clouds 30 1005 47 10000 9 180 02.08.2018 14:22
112 kr Seoul Clouds 30 1005 75 3000 11 280 02.08.2018 14:21
113 es Barcelona Rain 30 1008 43 10000 26 290 02.08.2018 14:22
114 jp Nagasaki Clouds 31 1009 74 10000 20 230 02.08.2018 14:21
115 ph Manila Rain 31 1004 74 10000 9 280 02.08.2018 14:21
116 mv Male Clouds 31 1009 74 10000 13 360 02.08.2018 14:23
117 au Darwin Clouds 31 1009 60 10000 20 350 02.08.2018 14:22
118 th Bangkok Clouds 32 1008 56 10000 8 217 02.08.2018 14:21
119 jp Tokio Clouds 32 1004 62 10000 28 180 02.08.2018 14:22
120 id Jakarta Clouds 32 1007 60 10000 20 18 02.08.2018 14:22
121 vn Hanoi Clouds 33 1004 63 10000 7 199 02.08.2018 14:21
122 es Palma de Mallorca Clear 33 1010 44 10000 17 230 02.08.2018 14:22
123 us Death Valley Clouds 35 1011 32 10000 10 161 02.08.2018 14:22
124 sa Riad Clouds 36 1000 13 10000 28 31 02.08.2018 14:21
125 cn Shanghai Clear 37 1002 68 10000 22 150 02.08.2018 14:21
126 ae Dubai Dust 37 997 39 400 15 180 02.08.2018 14:21
127 iq Bagdad Dust 39 1000 24 1000 22 330 02.08.2018 14:22
128 qa Doha Clouds 40 997 31 9000 17 130 02.08.2018 14:23